Regional Weather Roundup
Issued by NWS

Home | Current Version | Previous Version | Graphics & Text | Print | Product List | Glossary On
Versions: 1 2 3 4 5 6 7 8 9 10 11 12 13 14 15 16 17 18 19 20 21 22 23 24 25 26 27 28 29 30 31 32 33 34 35 36 37 38 39 40 41 42 43 44 45 46 47 48 49 50
000
ASUS45 KABQ 260410
RWRNM
WEATHER ROUNDUP FOR NEW MEXICO
NATIONAL WEATHER SERVICE ALBUQUERQUE NM
1000 PM MDT FRI JUL 25 2014

NOTE: "FAIR" MEANS FEW OR NO CLOUDS BELOW 12,000 FEET AGL WITH NO
       SIGNIFICANT WEATHER OR OBSTRUCTIONS TO VISION.

      THIS PRODUCT IS RELEASED AS TWO VERSIONS.  ONE VERSION NEAR
      THE TOP OF THE HOUR CONTAINING PRELIMINARY DATA FROM ALBUQUERQUE
      AND OTHER STATIONS.  A FINAL VERSION WITH ADDITIONAL DATA IS
      ISSUED ABOUT 10 MINUTES AFTER THE HOUR.

NMZ501-503-504-510>518-260500-
NORTHWEST PLATEAU/NORTHCENTRAL MOUNTAINS

CITY           SKY/WX    TMP DP  RH WIND       PRES   REMARKS
FARMINGTON     CLEAR     84  42  22 W5        30.11R
LOS ALAMOS     CLEAR     77  40  26 W12       30.28R
SANTA FE       CLEAR     77  48  35 CALM      30.18R
TAOS           PTCLDY    72  48  43 N13       30.29R
ANGEL FIRE     FAIR      59  47  64 CALM      30.40R

$$
NMZ402-403-502-505>509-260500-
WESTCENTRAL MOUNTAINS/SOUTHWEST MOUNTAINS

CITY           SKY/WX    TMP DP  RH WIND       PRES   REMARKS
GALLUP         PTCLDY    75  35  23 CALM      30.22R
GRANTS         RAIN      73  46  38 N5        30.24R
SILVER CITY    CLEAR     82  37  20 SW5       30.17R

$$
NMZ407-409-411-412-260500-
SOUTHERN DESERTS

CITY           SKY/WX    TMP DP  RH WIND       PRES   REMARKS
LORDSBURG      FAIR      82  54  36 SW9       30.08R
DEMING         CLEAR     87  43  21 S8        30.05R
LAS CRUCES     CLEAR     88  39  17 S7        30.08R
HOLLOMAN AFB   CLEAR     87  44  22 NW10      30.02R
ALAMOGORDO     CLEAR     81  43  26 S9        30.05R
T OR C         CLEAR     87  39  18 S5        30.08R

$$
NMZ519>523-260500-
CENTRAL VALLEYS/CENTRAL HIGHLANDS

CITY           SKY/WX    TMP DP  RH WIND       PRES   REMARKS
ALBUQUERQUE    PTCLDY    86  44  23 SE5       30.10R
DOUBLE EAGLE   PTCLDY    77  41  27 SW8       30.16
MORIARTY ARPT  FAIR      71  42  34 S3        30.20R
CLINES CORNERS CLEAR     73  36  25 SW10      30.26R
BELEN          FAIR      80  42  25 S6        30.09R
SOCORRO        FAIR      88  37  16 SW8       30.07R

$$
NMZ524>526-539-540-260500-
SOUTHCENTRAL MOUNTAINS

CITY           SKY/WX    TMP DP  RH WIND       PRES   REMARKS
RUIDOSO        CLEAR     73  45  35 MISG      30.31R

$$
NMZ527>531-260500-
NORTHEAST HIGHLANDS/NORTHEAST PLAINS

CITY           SKY/WX    TMP DP  RH WIND       PRES   REMARKS
LAS VEGAS      PTCLDY    73  44  35 W8        30.23R
RATON          MOCLDY    74  51  44 N14       30.19R
CLAYTON        MOCLDY    85  50  29 NW13G24   30.10R

$$
NMZ532>537-260500-
EASTCENTRAL PLAINS

CITY           SKY/WX    TMP DP  RH WIND       PRES   REMARKS
TUCUMCARI      CLEAR     89  48  24 S18       29.99R
CANNON AFB     CLEAR     80  51  36 S10       30.07R
CLOVIS AIRPORT CLEAR     79  48  34 S10       30.09

$$
NMZ028-029-538-260500-
SOUTHEAST PLAINS

CITY           SKY/WX    TMP DP  RH WIND       PRES   REMARKS
ROSWELL        CLEAR     86  47  25 S10       30.01R
ARTESIA        CLEAR     84  45  24 S10       30.01R
CARLSBAD       CLEAR     89  42  19 SE12      30.00R
HOBBS          CLEAR     82  45  26 SE9       30.06R


$$


USA.gov is the U.S. government's official web portal to all federal, state and local government web resources and services.